"Pseudo-MPEC" for P10O5ia

Created 2019 Jun 20 19:07:16 UT using Find_Orb

Click here for an explanation of pseudo-MPECs

 
 Astrometry: 
     P10O5ia  C2019 05 26V?dfOd\b47neAstrometry;d^FGURY:8xa#cUuK9Qj#qsg-\Cus8F51
     P10O5ia  C2019 05 26`4VE5WTgjoredacted;Yh07,e2W$=![hNHu0Fq]^1LnVaLe(Za_DF51
     P10O5ia  C2019 05 26Rk/dh[W#I+ypLpSclick0'%X8@*#H!7d`[+Dhere[afjf#p?Mv5'F51
     P10O5ia  C2019 05 26,p`b'I?)J0mdE0IDE00a(T'_$F35:``T%H[for(BeexplanationF51
     P10O5ia  C2019 05 28.15077 12 17 45.74 -24 42 50.9    ~5SCp 22.8 GVNEOCPV06
     P10O5ia  C2019 05 28.15395 12 17 45.58 -24 42 45.3    ~5SCp 23.1 GVNEOCPV06
     P10O5ia  C2019 05 28.15712 12 17 45.33 -24 42 39.5    ~5SCp 23.5 GVNEOCPV06
     P10O5ia  C2019 05 28.16030 12 17 45.16 -24 42 35.8    ~5SCp       VNEOCPV06
     P10O5ia ^C2019 06 02.28547512 14 33.263-22 18 56.63   ~628q 22.50GVNEOCP568
     P10O5ia ^C2019 06 02.28642612 14 33.236-22 18 55.16   ~628q 21.94GVNEOCP568
     P10O5ia ^C2019 06 02.28737912 14 33.202-22 18 53.68   ~628q 22.04GVNEOCP568

Station data:
(568) Mauna Kea  (N19.826116 W155.472200)  US/Hawaii.
(F51) Pan-STARRS 1, Haleakala  (N20.707235 W156.255910)  US/Hawaii.
   Observers N. Primak, A. Schultz, S. Watters, J. Thiel, T. Goggia. Measurer
   PS1 Science Consortium. 1.8-m Ritchey-Chrétien + CCD.
(V06) Catalina Sky Survey-Kuiper  (N32.416847 W110.732550)  US/Arizona.
   Observers T. A. Pruyne, B. M. Africano, E. J. Christensen, G. A. Farneth,
   D. C. Fuls, A. R. Gibbs, A. D. Grauer, H. Groeller, J. A. Johnson, R. A.
   Kowalski, S. M. Larson, G. J. Leonard, R. L. Seaman, F. C. Shelly. 1.55-m
   reflector + CCD.

Orbital elements:  P10O5ia
   Perihelion 2019 Oct 9.124497 +/- 0.0349 TT =  2:59:16 (JD 2458765.624497)
Epoch 2019 Jun  2.0 TT = JDT 2458636.5   Earth MOID: 0.0340   Ve: 0.0582
M 221.54021225 +/- 0.17             (J2000 ecliptic)          AutoNEOCP
n   1.07229681 +/- 0.00111          Peri.  112.65834 +/- 0.18
a   0.94535016 +/- 0.000649         Node   282.77929 +/- 0.14
e   0.4608625 +/- 0.00212           Incl.    9.10682 +/- 0.040
P   0.92/335.72d           H 22.1   G  0.15   U  8.2  
q 0.50967364 +/- 0.00225    Q 1.38102668 +/- 0.00152
From 11 observations 2019 May 26-June 2; mean residual 0".42
Residuals in arcseconds: 
190526 F51  .27-  .09-    190528 V06  .14+  .49+    190602 568  .02-  .04+    
190526 F51  .06+  .22-    190528 V06  .48+  .41+    190602 568  .03+  .00     
190526 F51  .15-  .13-    190528 V06  .42-  .54+    190602 568  .01-  .03-    
190526 F51  .38+  .45+    190528 V06  .21-  1.4-    

Ephemerides (geocentric):
Date (UTC) HH   RA              Dec         delta   r     elong  mag " sig PA
---- -- -- --  -------------   -----------  ------ ------ -----  --- ---- ---
2019 06 20 19  12 17 51.224   -16 04 26.88  .57341 1.2613 101.4 23.3 15.1  77
2019 06 20 20  12 17 52.846   -16 03 49.89  .57359 1.2612 101.3 23.3 15.1  77
2019 06 20 21  12 17 54.471   -16 03 12.95  .57376 1.2610 101.3 23.3 15.2  77
2019 06 20 22  12 17 56.100   -16 02 36.07  .57394 1.2608 101.3 23.3 15.2  77
2019 06 20 23  12 17 57.734   -16 01 59.23  .57412 1.2606 101.2 23.3 15.3  77
2019 06 21 00  12 17 59.372   -16 01 22.45  .57430 1.2605 101.2 23.3 15.3  77
2019 06 21 01  12 18 01.014   -16 00 45.72  .57448 1.2603 101.1 23.3 15.4  77
2019 06 21 02  12 18 02.660   -16 00 09.04  .57466 1.2601 101.1 23.3 15.4  77
2019 06 21 03  12 18 04.310   -15 59 32.41  .57484 1.2599 101.1 23.3 15.5  77
2019 06 21 04  12 18 05.965   -15 58 55.83  .57501 1.2598 101.0 23.3 15.5  77
2019 06 21 05  12 18 07.623   -15 58 19.31  .57519 1.2596 101.0 23.3 15.6  77
2019 06 21 06  12 18 09.286   -15 57 42.84  .57537 1.2594 101.0 23.3 15.6  77
2019 06 21 07  12 18 10.953   -15 57 06.42  .57555 1.2592 100.9 23.3 15.7  77
2019 06 21 08  12 18 12.624   -15 56 30.05  .57573 1.2590 100.9 23.3 15.7  77
2019 06 21 09  12 18 14.299   -15 55 53.73  .57590 1.2589 100.9 23.3 15.8  77
2019 06 21 10  12 18 15.978   -15 55 17.47  .57608 1.2587 100.8 23.3 15.8  77
2019 06 21 11  12 18 17.661   -15 54 41.26  .57626 1.2585 100.8 23.3 15.9  77
2019 06 21 12  12 18 19.348   -15 54 05.09  .57644 1.2583 100.7 23.3 15.9  77
2019 06 21 13  12 18 21.040   -15 53 28.98  .57661 1.2582 100.7 23.3 16.0  77
2019 06 21 14  12 18 22.735   -15 52 52.92  .57679 1.2580 100.7 23.3 16.0  77
2019 06 21 15  12 18 24.435   -15 52 16.91  .57697 1.2578 100.6 23.3 16.1  77
2019 06 21 16  12 18 26.138   -15 51 40.96  .57715 1.2576 100.6 23.4 16.1  77
2019 06 21 17  12 18 27.846   -15 51 05.05  .57732 1.2574 100.6 23.4 16.2  77
2019 06 21 18  12 18 29.558   -15 50 29.20  .57750 1.2573 100.5 23.4 16.2  77
2019 06 21 19  12 18 31.274   -15 49 53.39  .57768 1.2571 100.5 23.4 16.2  77
2019 06 21 20  12 18 32.993   -15 49 17.64  .57785 1.2569 100.5 23.4 16.3  77
2019 06 21 21  12 18 34.717   -15 48 41.94  .57803 1.2567 100.4 23.4 16.3  77
2019 06 21 22  12 18 36.445   -15 48 06.28  .57821 1.2566 100.4 23.4 16.4  77
2019 06 21 23  12 18 38.177   -15 47 30.68  .57839 1.2564 100.3 23.4 16.4  77
2019 06 22 00  12 18 39.913   -15 46 55.13  .57856 1.2562 100.3 23.4 16.5  77
2019 06 22 01  12 18 41.653   -15 46 19.64  .57874 1.2560 100.3 23.4 16.5  77
2019 06 22 02  12 18 43.397   -15 45 44.19  .57892 1.2558 100.2 23.4 16.6  77
2019 06 22 03  12 18 45.145   -15 45 08.79  .57909 1.2557 100.2 23.4 16.6  77
2019 06 22 04  12 18 46.897   -15 44 33.44  .57927 1.2555 100.2 23.4 16.7  77
2019 06 22 05  12 18 48.653   -15 43 58.14  .57944 1.2553 100.1 23.4 16.7  77
2019 06 22 06  12 18 50.413   -15 43 22.90  .57962 1.2551 100.1 23.4 16.8  77
2019 06 22 07  12 18 52.177   -15 42 47.70  .57980 1.2549 100.1 23.4 16.8  77
2019 06 22 08  12 18 53.945   -15 42 12.55  .57997 1.2548 100.0 23.4 16.9  77
2019 06 22 09  12 18 55.717   -15 41 37.46  .58015 1.2546 100.0 23.4 16.9  77
2019 06 22 10  12 18 57.493   -15 41 02.41  .58032 1.2544 100.0 23.4 17.0  77
2019 06 22 11  12 18 59.272   -15 40 27.42  .58050 1.2542  99.9 23.4 17.0  77
2019 06 22 12  12 19 01.056   -15 39 52.47  .58068 1.2540  99.9 23.4 17.1  77
2019 06 22 13  12 19 02.844   -15 39 17.57  .58085 1.2539  99.8 23.4 17.1  77
2019 06 22 14  12 19 04.636   -15 38 42.73  .58103 1.2537  99.8 23.4 17.2  77
2019 06 22 15  12 19 06.431   -15 38 07.93  .58120 1.2535  99.8 23.4 17.2  77
2019 06 22 16  12 19 08.231   -15 37 33.18  .58138 1.2533  99.7 23.4 17.3  77
2019 06 22 17  12 19 10.034   -15 36 58.49  .58155 1.2531  99.7 23.4 17.3  77
2019 06 22 18  12 19 11.842   -15 36 23.84  .58173 1.2529  99.7 23.4 17.4  77